Volver al catálogo

STARLINK-35089

ActivoComunicacionesVLEO
NORAD 65484·PAYLOAD·🇺🇸 United States

Lanzado Sep 3, 2025 desde Cape Canaveral Space Force Station

Loading…

Próximos Pases (próximas 24 horas)

TLE

ActualizadoSource: CelesTrak SupGP

Época: Sep 14, 2026, 21:29 UTC

1 65484C 25195AC  26257.89562500 -.00011788  00000+0 -34834-3 0  2574
2 65484  53.1583  95.5554 0001162  82.9692 324.4339 15.34390261    16

Sigue STARLINK-35089 en tiempo real con AllMySat

Download on the App Store